Regional Weather Roundup
Issued by NWS Charleston, SC

Current Version | Previous Version | Graphics & Text | Print | Product List | Glossary On
Versions: 1 2 3 4 5 6 7 8 9 10 11 12 13 14 15 16 17 18 19 20 21 22 23 24 25 26 27 28 29 30 31 32 33 34 35 36 37 38 39 40 41 42 43 44 45 46 47 48 49 50
000
ASUS42 KCHS 291827
RWRCHS

REGIONAL WEATHER ROUNDUP
NATIONAL WEATHER SERVICE CHARLESTON SC
200 PM EDT WED MAR 29 2017

NOTE: "FAIR" INDICATES FEW OR NO CLOUDS BELOW 12,000 FEET WITH NO
SIGNIFICANT WEATHER AND/OR OBSTRUCTIONS TO VISIBILITY.

NOT ALL STATIONS ARE QUALITY CONTROLLED. USE DATA WITH CAUTION...
ESPECIALLY DEWPOINT OBSERVATIONS.

SCZ027-030-031-034>040-042>050-291900-
...SOUTHEAST SOUTH CAROLINA...

CITY           SKY/WX    TMP DP  RH WIND       PRES   REMARKS
N CHARLESTON   MOSUNNY   83  52  34 VRB3      30.00F
6HR MIN TEMP:  63; 6HR MAX TEMP:  85;

WATERFRONT PRK   N/A     70  62  76 SE7       30.00S
JOHNS ISLAND   FAIR      77  59  53 E12       30.02S
PINOPOLIS        N/A     70  59  68 VRB3      29.95F
MONCKS CORNER  FAIR      81  45  28 N6        30.01F
SUMMERVILLE    FAIR      82  50  32 N7        30.01F
BEAUFORT MCAS  SUNNY     81  60  48 SE5       30.02F
6HR MIN TEMP:  63; 6HR MAX TEMP:  81;

BEAUFORT ARPT  FAIR      79  57  47 CALM      30.01F
HILTON HEAD IS SUNNY     75  57  53 E7        30.04F
WALTERBORO     CLEAR     82  50  32 NW7       30.01F
ALLENDALE      FAIR      82  52  34 N6        30.00F

...SOUTHERN MIDLANDS AND PEE DEE...

CITY           SKY/WX    TMP DP  RH WIND       PRES   REMARKS
GEORGETOWN     FAIR      73  55  53 SE15      30.03F
KINGSTREE      FAIR      81  46  30 N9        30.01F
ORANGEBURG     SUNNY     81  50  33 MISG      30.02F
6HR MIN TEMP:  63; 6HR MAX TEMP:  81;

BARNWELL       FAIR      84  54  34 NE5       30.01F
AIKEN          FAIR      79  50  36 E6        30.05F
MANNING        FAIR      79  50  36 CALM      30.01F
COLUMBIA       MOSUNNY   80  51  36 VRB6      30.02F
6HR MIN TEMP:  54; 6HR MAX TEMP:  81;

SUMTER         SUNNY     80  51  35 CALM      30.00F
6HR MIN TEMP:  58; 6HR MAX TEMP:  80;

FLORENCE       SUNNY     77  54  44 W7        30.02F
6HR MIN TEMP:  60; 6HR MAX TEMP:  79;

MYRTLE BEACH   MOSUNNY   73  57  56 SE15      30.03F
N MYRTLE BEACH SUNNY     71  60  68 E15G22    30.02F
6HR MIN TEMP:  62; 6HR MAX TEMP:  76;


$$

GAZ063-065-086>088-099>101-113>116-118-119-134>141-150-291900-
...SOUTHEAST GEORGIA...

CITY           SKY/WX    TMP DP  RH WIND       PRES   REMARKS
SAVANNAH ARPT  PTSUNNY   82  55  39 VRB3      30.01F
6HR MIN TEMP:  62; 6HR MAX TEMP:  84;

HUNTER AAF     MOSUNNY   81  60  49 E8        30.00F
6HR MIN TEMP:  63; 6HR MAX TEMP:  82;

FORT STEWART   MOSUNNY   84  58  40 S5        29.98F
6HR MIN TEMP:  61; 6HR MAX TEMP:  85;

STATESBORO     SUNNY     84  58  41 NE6       30.01F
SYLVANIA       PTCLDY   N/A N/A N/A NW5       30.02F
CLAXTON        FAIR      84  59  42 CALM      30.01F

...CSRA...CENTRAL AND FAR SOUTHEAST GEORGIA...

CITY           SKY/WX    TMP DP  RH WIND       PRES   REMARKS
THOMSON        SUNNY     80  52  37 CALM      30.08F
AUGUSTA-BUSH   SUNNY     83  52  34 CALM      30.02F
6HR MIN TEMP:  55; 6HR MAX TEMP:  83;

AUGUSTA-DANIEL SUNNY     82  48  30 NE6       30.04F
SWAINSBORO     FAIR      82  54  36 CALM      30.03S
VIDALIA        SUNNY     82  55  39 NW5       30.01F
EASTMAN        FAIR      85  41  21 CALM      30.04F
HAZLEHURST     FAIR      85  62  45 SW3       30.00F
ALMA           MOSUNNY   85  61  44 CALM      30.00F
6HR MIN TEMP:  61; 6HR MAX TEMP:  86;

WAYCROSS       CLOUDY    88  66  47 NW3       30.00F HX  90
JESUP          MOCLDY    86  55  35 W6        30.00F
BAXLEY         FAIR      84  64  51 SW5       30.01S
BRUNSWICK      CLOUDY    81  68  65 E8        30.01F
SAINT SIMONS   MOSUNNY   77  62  59 E9        30.02F
6HR MIN TEMP:  66; 6HR MAX TEMP:  82;


$$

SCZ027-028-034-036>038-045-046-048>050-GAZ119-141-291900-
...LAKE AND SUPPLEMENTAL COASTAL OBSERVATIONS...

STATION/POSITION TIME  TEMP    WIND        PRES    WAVE   SWELL
                       AIR SEA DIR/SP/G            HT/PER HT/PER/DIR
                 (UTC) (F)     (DEG/KT/KT) (MB)    (FT/S) (FT/S/D)
WINYAH BAY       1745   69      90/ 10     1017.0S
LAKE MURRAY      1750   72     200/  7/  7 1016.3F
ACE BASIN NERRS  1745   77     190/  2     1016.0F
FORT PULASKI     1800   68 66   90/ 10/ 12 1017.1
SAPELO ISLAND    1800   81      90/  7     1016.0

$$

ANZ835-935-AMZ111-154-330-350-352-354-370-450-454-472-291900-
...C-MAN AND BUOY OBSERVATIONS...

STATION/POSITION TIME  TEMP    WIND        PRES    WAVE   SWELL
                       AIR SEA DIR/SP/G            HT/PER HT/PER/DIR
                 (UTC) (F)     (DEG/KT/KT) (MB)    (FT/S) (FT/S/D)
BUOY 41004       1750   69 71   20/ 12/ 14 1016.1F   5/10   5/110/10
BUOY 41008       1750   67 67  360/  4/  6 1016.8R   3/11   3/ 90/11
FOLLY BEACH CMAN 1800   67      90/  9/ 10 1017.6S
CAPERS NEARSHORE NOT AVBL
FRIPP NEARSHORE  1808   66 65   70/  8/ 10 1016.5F


STATION/POSITION TIME  TEMP    WIND        PRES    WAVE   SWELL
                       AIR SEA DIR/SP/G            HT/PER HT/PER/DIR
                 (UTC) (F)     (DEG/KT/KT) (MB)    (FT/S) (FT/S/D)
5E ST. MARYS GA  1800      70                N/A     3/10   2/120/12
FRYING PAN BUOY  1810   69 73   30/ 17/ 23 1016.5
BUOY 41025       1750   56 73   10/ 21/ 25 1017.7R   6/10   3/140/10
CAPE LOOKOUT NC  1800   59      40/ 16/ 18 1017.7F
BUOY 41002       1750   73 73  290/ 10/ 12 1015.0R   7/ 9   7/120/ 9
BUOY 41010       NOT AVBL
ST AUGUSTINE FL  1800   71 69  110/  5/  6 1017.6F


$$



USA.gov is the U.S. government's official web portal to all federal, state and local government web resources and services.